Погода в Таллинне

Погода в Таллинне : погода сейчас, прогноз погоды и архив. Всё, что Вы хотите узнать о погоде в Таллинне!

Поиск расширенной информации на нашем сайте:

Другие новости

Новости СМИ2

Главная страница сайта

Новости сайта

03.07.2017

Напоминаем, что на нашем специализированном сайте Метеоцентр.Азия вы можете получить высокодетализированные автоматические прогнозы погоды по пунктам России, СНГ и мира в авиационном формате (включающие направление и скорость ветра, видимость, явления погоды, количество и форму облачности, нижнюю и верхнюю границу облачности).


Погода в Таллинне - сегодня

Время (UTC), дата Ветер
(°,м/с) 
Видим.   Явления Облачность Т
(°С)
Тd
(°С)
f(%) Тe
(°С)
Pmin
(гПа)
dP
(гПа)
Po
(мм)
O2
(г/м3)
Тmin Tmax R s Состояние
почвы
00 09.12.17 190 (Ю) 4{09}  20000 м    6/6 400 м 
[St]
+3.5 +2 90 +2  993.5  0.1  742  295  +3.3  +4.9       
03 09.12.17 180 (Ю) 5{10}  20000 м    5/5 400 м 
[St]
+3.4 +1.5 87 +1  993.9  0.4  742  295  +3.3  +4.5       
06 09.12.17 200 (Ю) 5-8{11}  20000 м    8/8 400 м 
[St]
+2.8 +0.8 87 994.1  0.2  743  296  +2.6  +4.2       
12 09.12.17 190 (Ю) 5-9{10}  20000 м    9/9 600 м 
[Sc]
+3.6 +0.6 81 +1  996.9  0.7  745  296  +2.6  +4       
15 09.12.17 170 (Ю) 5{09}  20000 м  {дождь}  9/6 570 м средняя 
[Sc|Ac trans]
+2.7 +0.3 84 997.5  0.6  745  297  +2.6  +3.9       
18 09.12.17 170 (Ю) 20000 м  {дождь}  9/9 300 м 
[Sc]
+1.7 +0.2 90 -1  998.3  0.8  746  299    +3.9  0.0     
21 09.12.17 170 (Ю) 5-9{11}  16000 м    1/1 960 м 
[Sc]
+0.9 -1.8 82 -2  998.8  0.5  746  300  +0.8  +3.9       
00 10.12.17 160 (Ю) 5-11{11}  20000 м    1/0 верхняя 
[Ci fib]
-0.2 -2.9 82 -3  999  0.2  746  301  -0.3  +3.7       
03 10.12.17 160 (Ю) 5-9{10}  20000 м    9/9 700 м 
[Sc]
-0.7 -4 78 -4  998.3  -0.7  746  302  -1  +2.8       
06 10.12.17 150 (ЮВ) 4{09}  20000 м    9/9 630 м 
[Sc]
-0.4 -3.6 79 -3  997.5  -0.8  745  301  -1  +1.9       
09 10.12.17 160 (Ю) 20000 м    9/9 1020 м 
[Sc]
-0.5 -3.1 83 -3  997.4  0.1  745  301  -1  +1       
12 10.12.17 160 (Ю) 20000 м  {снег}  9/9 450 м 
[Sc]
+0.1 -2.4 83 -3  996.7  -0.7  744  300  -1  +0.1       
21 10.12.17 150 (ЮВ) 13000 м    9/9 300 м 
[St]
+0.1 -1.5 89 -2  998  0.9  745  300  -0.7  +0.1       
00 11.12.17 160 (Ю) 20000 м    9/9 870 м 
[Sc]
+0.1 -1.8 87 -2  998.2  0.2  746  300  -0.7  +0.2       
03 11.12.17 140 (ЮВ) 20000 м    5/4 660 м верхняя 
[Sc|Ci fib]
-1.6 -3.4 88 -4  998.7  0.5  746  303  -1.7  +0.2       
06 11.12.17 140 (ЮВ) 20000 м    4/4 верхняя 
[Ci fib]
-2.9 -3.8 93 -6  999.3  0.6  746  304  -2.9  +0.2       
12 11.12.17 120 (ЮВ) 20000 м    3/0 верхняя 
[Cc]
-1.4 -3.7 84 -3  1000  -0.6  747  303  -3.2  +0.2       
15 11.12.17 100 (В) 20000 м    3/1 средняя, верхняя 
[Ac trans|Cc]
-2.7 -4.6 87 -6  1001.2  1.2  748  305  -3.2  -1.3       
18 11.12.17 120 (ЮВ) 5-8{09}  20000 м    5/0 средняя, верхняя 
[Ac trans|Cc]
-2.4 -4.6 85 -6  1001.4  0.2  748  305  -3.2  -1.3       
21 11.12.17 130 (ЮВ) 4{09}  19000 м  слаб. ливневой снег  10/10 400 м кучево-дожд. 
[Cb cap]
-2.1 -4 87 -5  1001.2  -0.2  748  304  -3  -1.3       
00 12.12.17 140 (ЮВ) 4{09}  20000 м  {ливн. осадки}  9/9 300 м 
[St]
-1.8 -3.4 89 -5  999.3  -1.9  746  303  -3  -1.4       
03 12.12.17 140 (ЮВ) 6-10{10}  20000 м    10/10 240 м 
[St]
-1.4 -2.7 91 -5  997.4  -1.9  745  302  -3  -1.4       
09 12.12.17 150 (ЮВ) 6-9{12}  18000 м  дождь{ливн. осадки, снег}  10/10 210 м 
[Frnb|Ns]
+0.6 -0.1 95 -3  990.5  -3.4  740  297  -2.1  +0.6     
12 12.12.17 170 (Ю) 5-9{14}  19000 м  дождь со снегом{ливн. осадки}  10/10 210 м 
[Frnb|Ns]
+1.3 +0.8 96 -1  986.8  -3.7  737  295  -1.8  +1.5     
15 12.12.17 180 (Ю) 5{10}  20000 м  слаб. дождь{снег}  10/10 150 м 
[Frnb|Ns]
+1.6 +1.3 98 -1  985.2  -1.6  736  295  -1.4  +1.6     
Время (UTC), дата Ветер
(°,м/с) 
Видим.   Явления Облачность Т
(°С)
Тd
(°С)
f(%) Тe
(°С)
Pmin
(гПа)
dP
(гПа)
Po
(мм)
O2
(г/м3)
Тmin Tmax R s Состояние
почвы

Для получения пояснительной информации подведите курсор к названию столбца.

ПОГОДА в Таллинне - архив

Всё, что Вы хотите узнать о погоде в Таллинне - удобно и подробно!

Выберите нужную дату (начиная с 1 января 2015* года) и нажмите кнопку "Найти".
Будут отображены архивные сводки погоды по пункту Таллинн, начиная с указанной даты.


Отображать данные в формате CSV (для использования в таблицах Excel)


Внимание! Наш архив погоды предназначен исключительно для личного некоммерческого использования в познавательных целях. Если Вам необходимы официальные справки о состоянии погоды (для производственных, юридических, коммерческих и т.п. целей), обращайтесь в органы Росгидромета.

*Примечание: данная дата относится к архиву по метеостанциям СССР (Россия, СНГ, Балтия).
Архив по метеостанциям Зарубежной Европы и Азии (кроме Китая) хранится 10 дней, по другим регионам земного шара (Китай, Африка, Америка, Австралия, Океания) - 1 день.

Таллинн - район местоположения метеостанции


Название, широта, долгота, высота метеостанции:
Таллинн 59.4°ш. 24.6°д. 34 м над ур. моря [Эстония]

Дополнительная информация

В oтличие oт бoльшинства пoгoдных сайтoв мы публикуем пoдрoбную метеoинфoрмацию в детальнoм прoфессиoнальнoм фoрмате.

Характеристики температуры и влажнoсти вoздуха измеряются на высoте 2 м в тени вдали oт зданий и деревьев.
Скoрoсть ветра измеряется на высoте 10 м (на урoвне рoста челoвека скoрoсть ветра ниже в 1.5-2 раза). Если метеoстанция нахoдится в гoрoде или в лесу, тo скoрoсть ветра занижена на 2-4 м/с пo сравнению с oткрытым местoм. Скoрoсть ветра над акватoриями крупных рек и oзёр, а также на вершинах хoлмoв на 2-5 м/с выше, чем в oбычных услoвиях.
Атмoсфернoе давление в разных тoчках местнoсти мoжет значительнo oтличаться oт давления на метеoстанции, в зависимoсти oт услoвий рельефа (при пoдъёме на 10 м давление пoнижается примернo на 1 мм рт.ст.).